• In Hungary
  • List of Countries
  • For 7 days
  • Water Temperature
  • Satellite Maps
  • Weather Map
  • News
  • Weather Widgets
  • user-avatar
    Login

    Hourly Weather Susice

    Today, 19 July, Thursday

    Time Temperature Precipitation Wind Pressure Humidity
    00:00 +15°C° 0 mm 1 mps 709 mmHg 90%
    01:00 +15°C° 0 mm 1 mps 709 mmHg 90%
    02:00 +14°C° 0 mm 1 mps 709 mmHg 91%
    03:00 +14°C° 0 mm 1 mps 709 mmHg 91%
    04:00 +13°C° 0 mm 1 mps 709 mmHg 92%
    05:00 +15°C° 0 mm 1 mps 709 mmHg 88%
    06:00 +16°C° 0 mm 1 mps 710 mmHg 84%
    07:00 +18°C° 0 mm 1 mps 710 mmHg 81%
    08:00 +20°C° 0 mm 1 mps 710 mmHg 72%
    09:00 +20°C° 0 mm 2 mps 710 mmHg 64%
    10:00 +23°C° 0 mm 2 mps 710 mmHg 55%
    11:00 +24°C° 0 mm 2 mps 710 mmHg 52%
    12:00 +25°C° 0 mm 2 mps 710 mmHg 49%
    13:00 +25°C° 0 mm 2 mps 710 mmHg 45%
    14:00 +26°C° 0 mm 2 mps 710 mmHg 46%
    15:00 +26°C° 0 mm 2 mps 710 mmHg 46%
    16:00 +26°C° 0 mm 2 mps 710 mmHg 47%
    17:00 +24°C° 0 mm 2 mps 710 mmHg 54%
    18:00 +23°C° 0 mm 2 mps 709 mmHg 62%
    19:00 +21°C° 0 mm 1 mps 709 mmHg 69%
    20:00 +20°C° 0 mm 1 mps 709 mmHg 74%
    21:00 +18°C° 0 mm 1 mps 709 mmHg 79%
    22:00 +15°C° 0 mm 1 mps 709 mmHg 84%
    23:00 +15°C° 0 mm 1 mps 709 mmHg 86%

    Tomorrow, 20 July, Friday

    Time Temperature Precipitation Wind Pressure Humidity
    00:00 +14°C° 0 mm 1 mps 709 mmHg 87%
    01:00 +14°C° 0 mm 1 mps 709 mmHg 89%
    02:00 +14°C° 0 mm 1 mps 709 mmHg 90%
    03:00 +12°C° 0 mm 0 mps 709 mmHg 91%
    04:00 +12°C° 0 mm 0 mps 709 mmHg 91%
    05:00 +14°C° 0 mm 0 mps 709 mmHg 87%
    06:00 +15°C° 0 mm 0 mps 709 mmHg 82%
    07:00 +17°C° 0 mm 0 mps 709 mmHg 77%
    08:00 +21°C° 0 mm 1 mps 710 mmHg 71%
    09:00 +22°C° 0 mm 1 mps 710 mmHg 64%
    10:00 +24°C° 0 mm 1 mps 710 mmHg 58%
    11:00 +25°C° 0 mm 1 mps 710 mmHg 55%
    12:00 +25°C° 0 mm 1 mps 709 mmHg 52%
    13:00 +26°C° 0 mm 1 mps 709 mmHg 49%
    14:00 +26°C° 0 mm 1 mps 709 mmHg 49%
    15:00 +26°C° 0 mm 1 mps 709 mmHg 48%
    16:00 +26°C° 0 mm 1 mps 708 mmHg 48%
    17:00 +25°C° 0 mm 1 mps 708 mmHg 55%
    18:00 +23°C° 0 mm 1 mps 708 mmHg 62%
    19:00 +22°C° 0 mm 1 mps 707 mmHg 69%
    20:00 +21°C° 0 mm 1 mps 707 mmHg 72%
    21:00 +19°C° 0 mm 1 mps 707 mmHg 74%
    22:00 +18°C° 0 mm 1 mps 707 mmHg 77%
    23:00 +16°C° 0 mm 1 mps 707 mmHg 78%

    Day after tomorrow, 21 July, Saturday

    Time Temperature Precipitation Wind Pressure Humidity
    00:00 +16°C° 0 mm 1 mps 707 mmHg 79%
    01:00 +15°C° 0 mm 1 mps 707 mmHg 81%
    02:00 +15°C° 0 mm 1 mps 706 mmHg 81%
    03:00 +15°C° 0 mm 1 mps 706 mmHg 81%
    04:00 +15°C° 0 mm 1 mps 706 mmHg 81%
    05:00 +16°C° 0 mm 1 mps 706 mmHg 78%
    06:00 +18°C° 0 mm 1 mps 706 mmHg 74%
    07:00 +19°C° 0 mm 1 mps 706 mmHg 71%
    08:00 +21°C° 0 mm 1 mps 707 mmHg 66%
    09:00 +23°C° 0 mm 1 mps 707 mmHg 61%
    10:00 +24°C° 0 mm 1 mps 707 mmHg 56%
    11:00 +25°C° 0.3 mm 1 mps 707 mmHg 57%
    12:00 +25°C° 0.3 mm 1 mps 707 mmHg 58%
    13:00 +26°C° 0.3 mm 1 mps 707 mmHg 60%
    14:00 +25°C° 1.2 mm 2 mps 707 mmHg 65%
    15:00 +24°C° 1.2 mm 2 mps 707 mmHg 71%
    16:00 +23°C° 1.2 mm 2 mps 707 mmHg 76%
    17:00 +22°C° 1.1 mm 1 mps 706 mmHg 81%
    18:00 +21°C° 1.1 mm 1 mps 706 mmHg 85%
    19:00 +20°C° 1.1 mm 1 mps 706 mmHg 89%
    20:00 +19°C° 0.3 mm 1 mps 706 mmHg 90%
    21:00 +19°C° 0.3 mm 1 mps 706 mmHg 92%
    22:00 +18°C° 0.3 mm 1 mps 706 mmHg 93%
    23:00 +18°C° 0.1 mm 1 mps 706 mmHg 93%

    22 July, Sunday

    Time Temperature Precipitation Wind Pressure Humidity
    00:00 +16°C° 0.1 mm 1 mps 706 mmHg 94%
    01:00 +16°C° 0.1 mm 1 mps 706 mmHg 95%
    02:00 +16°C° 0.4 mm 1 mps 706 mmHg 95%
    03:00 +16°C° 0.4 mm 1 mps 706 mmHg 96%
    04:00 +16°C° 0.4 mm 1 mps 705 mmHg 96%
    05:00 +16°C° 0.3 mm 1 mps 706 mmHg 95%
    06:00 +18°C° 0.3 mm 1 mps 706 mmHg 94%
    07:00 +18°C° 0.3 mm 1 mps 706 mmHg 93%
    08:00 +19°C° 0.6 mm 1 mps 706 mmHg 89%
    09:00 +20°C° 0.6 mm 1 mps 706 mmHg 85%
    10:00 +21°C° 0.6 mm 1 mps 706 mmHg 81%
    11:00 +22°C° 0.9 mm 1 mps 706 mmHg 79%
    12:00 +23°C° 0.9 mm 1 mps 706 mmHg 77%
    13:00 +23°C° 0.9 mm 2 mps 706 mmHg 74%
    14:00 +23°C° 1.3 mm 2 mps 706 mmHg 77%
    15:00 +23°C° 1.3 mm 2 mps 706 mmHg 80%
    16:00 +22°C° 1.3 mm 3 mps 706 mmHg 82%
    17:00 +21°C° 1 mm 2 mps 706 mmHg 85%
    18:00 +20°C° 1 mm 2 mps 706 mmHg 89%
    19:00 +19°C° 1 mm 2 mps 706 mmHg 92%
    20:00 +18°C° 0.5 mm 2 mps 706 mmHg 93%
    21:00 +17°C° 0.5 mm 2 mps 706 mmHg 93%
    22:00 +16°C° 0.5 mm 1 mps 707 mmHg 94%
    23:00 +16°C° 0.1 mm 1 mps 707 mmHg 94%

    23 July, Monday

    Time Temperature Precipitation Wind Pressure Humidity
    00:00 +15°C° 0.1 mm 1 mps 707 mmHg 94%
    01:00 +15°C° 0.1 mm 1 mps 707 mmHg 94%
    02:00 +14°C° 0 mm 1 mps 707 mmHg 94%
    03:00 +14°C° 0 mm 1 mps 707 mmHg 94%
    04:00 +13°C° 0 mm 1 mps 707 mmHg 94%
    05:00 +14°C° 0 mm 1 mps 708 mmHg 91%
    06:00 +16°C° 0 mm 1 mps 708 mmHg 89%
    07:00 +18°C° 0 mm 1 mps 709 mmHg 86%
    08:00 +19°C° 0.4 mm 1 mps 709 mmHg 82%
    09:00 +19°C° 0.4 mm 2 mps 709 mmHg 79%
    10:00 +21°C° 0.4 mm 2 mps 709 mmHg 75%
    11:00 +23°C° 0.4 mm 2 mps 709 mmHg 71%
    12:00 +23°C° 0.4 mm 2 mps 709 mmHg 67%
    13:00 +24°C° 0.4 mm 2 mps 709 mmHg 63%
    14:00 +24°C° 0.3 mm 2 mps 709 mmHg 63%
    15:00 +24°C° 0.3 mm 3 mps 709 mmHg 64%
    16:00 +24°C° 0.3 mm 3 mps 709 mmHg 64%
    17:00 +23°C° 0.1 mm 2 mps 709 mmHg 69%
    18:00 +21°C° 0.1 mm 2 mps 709 mmHg 74%
    19:00 +21°C° 0.1 mm 1 mps 709 mmHg 79%
    20:00 +20°C° 0 mm 1 mps 709 mmHg 82%
    21:00 +18°C° 0 mm 1 mps 709 mmHg 84%
    22:00 +16°C° 0 mm 1 mps 709 mmHg 87%
    23:00 +15°C° 0 mm 1 mps 709 mmHg 88%

    24 July, Tuesday

    Time Temperature Precipitation Wind Pressure Humidity
    00:00 +15°C° 0 mm 1 mps 709 mmHg 89%
    01:00 +14°C° 0 mm 1 mps 709 mmHg 89%
    02:00 +14°C° 0 mm 1 mps 709 mmHg 90%
    03:00 +13°C° 0 mm 0 mps 709 mmHg 90%
    04:00 +13°C° 0 mm 0 mps 709 mmHg 90%
    05:00 +14°C° 0 mm 0 mps 709 mmHg 86%
    06:00 +15°C° 0 mm 0 mps 710 mmHg 82%
    07:00 +17°C° 0 mm 0 mps 710 mmHg 78%
    08:00 +21°C° 0 mm 1 mps 710 mmHg 70%
    09:00 +23°C° 0 mm 1 mps 710 mmHg 63%
    10:00 +24°C° 0 mm 1 mps 710 mmHg 56%
    11:00 +25°C° 0 mm 1 mps 710 mmHg 54%
    12:00 +26°C° 0 mm 1 mps 710 mmHg 53%
    13:00 +26°C° 0 mm 2 mps 710 mmHg 51%
    14:00 +26°C° 0 mm 2 mps 709 mmHg 52%
    15:00 +26°C° 0 mm 2 mps 709 mmHg 53%
    16:00 +26°C° 0 mm 2 mps 709 mmHg 54%
    17:00 +25°C° 0 mm 1 mps 709 mmHg 60%
    18:00 +24°C° 0 mm 1 mps 709 mmHg 67%
    19:00 +23°C° 0 mm 1 mps 708 mmHg 73%
    20:00 +21°C° 0 mm 1 mps 708 mmHg 78%
    21:00 +20°C° 0 mm 1 mps 708 mmHg 82%
    22:00 +18°C° 0 mm 1 mps 708 mmHg 86%
    23:00 +18°C° 0 mm 1 mps 708 mmHg 87%
    Show more